{"data":{"norad_id":60391,"intl_designator":"2024-140N","name":"QIANFAN-13","alt_names":[],"object_type":"PAYLOAD","status":"ACTIVE","operator":null,"country":"PRC","launch_date":"2024-08-06","launch_site_code":"TAISC","launch_vehicle":null,"mission":null,"orbit_class":"UNKNOWN","rcs_meters":null,"size_class":null,"mass_kg":null,"dimensions":null,"purposes":[],"wikipedia_slug":null,"has_3d_model":false,"image_url":null,"decayed_at":null,"tle_current":{"epoch":"2026-05-25T04:12:31.106592Z","epoch_age_seconds":53256,"freshness":"FRESH","line1":"1 60391U 24140N   26145.17536003  .00000087  00000+0  11616-3 0  9995","line2":"2 60391  88.9709 282.4449 0015025  97.5677 262.7182 13.51008288 89336","mean_motion":13.51008288,"eccentricity":0.0015025,"inclination_deg":88.9709,"raan_deg":282.4449,"arg_perigee_deg":97.5677,"mean_anomaly_deg":262.7182,"bstar":0.00011616,"rev_number":8933,"period_min":106.5870589241,"perigee_km":1057.3624808217,"apogee_km":1079.7397786515,"semimajor_km":7446.6881297366,"source":"CELESTRAK","updated_at":"2026-05-25T13:38:02.042686Z"}}}